GSAT0218 (GALILEO 22) (43058 NORAD) Tracking and Keplerian Element Data

This shows tracking and keplerian element data for the satellite.

Feedback or suggestion? Click here.




ElementValue
Catalog43058
NameGSAT0218 (GALILEO 22)
Epoch Orbit2357
Epoch Day269.01985283
Epoch Year2021
RAAN268.9994
Inclination55.9235
Eccentricity0.00066
Argument of Perigee271.8167
Mean Anonmoly88.108
Mean Motion1.70474196
Decay Rate1.8E-07
L11 43058U 17079D 21269.01985283 .00000018 00000-0 00000+0 0 9998
L22 43058 55.9235 268.9994 0006600 271.8167 88.1080 1.70474196 23573

Live tracking and technical data element details for GSAT0218 (GALILEO 22) (NORAD 43058). GSAT0218 (GALILEO 22) can be tracked NOW for your location showing map with azimuth and elevation plus other details from your city location.

Track the satellite on the map from your city or location and see movement details for azimuth, elevation, latitude, longitude, range, height, and movement on the map or in text.







IsCatalogInMostPopularTable: catalog: 43058, numindb: 656
Update: records affected: 1



GetName: 43058 GSAT0218 (GALILEO 22)

Hit Count: updated at: Tue, 28 Sep 2021 15:41:02 GMT